Date String (YYYY-MM-DD hh:mm:ss) UTC,Instrument flags,Ambient pressure (hPa),Sample flow (lpm),Bypass flow (lpm),Sample temperature (°C),Ambient temperature (°C),ASC tube jacket temperature (°C),LED temperature (°C),Box temperature (°C),Sample RH (%),Span deviation,Mass concentration (μg/m³),Mass concentration (μg/m³),Mass concentration (μg/m³)
DateTimeUTC,F1_M11,P_M11,Q1_M11,Q2_M11,T1_M11,T2_M11,T3_M11,T4_M11,T5_M11,U1_M11,ZSPAN_M11,X0_M11,X2_M11,X1_M11
2022-09-27 01:00:00,,0831.5,5.00,0.00,29.7,28.4,00.0,38.4,31.7,15.4,0000.0,0009.76,0004.01,0003.50
2022-09-27 01:01:00,,0831.5,4.99,0.00,29.8,28.6,00.0,38.4,31.8,15.4,0000.0,0009.68,0003.98,0003.49
2022-09-27 01:02:00,,0831.6,5.02,0.00,29.8,28.7,00.0,38.4,31.8,15.3,0000.0,0009.69,0003.97,0003.49
2022-09-27 01:03:00,,0831.6,4.99,0.00,29.8,28.8,00.0,38.5,31.8,15.2,0000.0,0010.20,0003.95,0003.50
2022-09-27 01:04:00,,0831.5,4.99,0.00,29.9,28.9,00.0,38.5,31.9,15.1,0000.0,0010.16,0003.93,0003.49
2022-09-27 01:05:00,,0831.6,5.01,0.00,29.9,28.8,00.0,38.5,32.0,15.1,0000.0,0010.36,0003.96,0003.49
2022-09-27 01:06:00,,0831.6,5.00,0.00,29.9,27.5,00.0,38.5,31.8,15.1,0000.0,0010.44,0003.96,0003.48
2022-09-27 01:07:00,,0831.6,5.00,0.00,29.9,26.2,00.0,38.5,31.7,15.1,0000.0,0010.55,0004.00,0003.48
2022-09-27 01:08:00,,0831.6,5.01,0.00,29.8,26.2,00.0,38.4,31.6,15.2,0000.0,0009.94,0004.04,0003.49
2022-09-27 01:09:00,,0831.6,5.00,0.00,29.7,26.5,00.0,38.4,31.5,15.4,0000.0,0010.39,0004.04,0003.48
2022-09-27 01:10:00,,0831.6,4.98,0.00,29.7,26.9,00.0,38.4,31.4,15.5,0000.0,0010.34,0004.03,0003.48
2022-09-27 01:11:00,,0831.6,5.00,0.00,29.7,27.3,00.0,38.4,31.5,15.6,0000.0,0009.79,0004.03,0003.50
2022-09-27 01:12:00,,0831.6,5.00,0.00,29.7,27.6,00.0,38.4,31.5,15.7,0000.0,0010.35,0004.04,0003.50
2022-09-27 01:13:00,,0831.6,5.00,0.00,29.7,27.8,00.0,38.4,31.5,15.7,0000.0,0010.36,0004.03,0003.50
2022-09-27 01:14:00,,0831.6,4.99,0.00,29.7,28.0,00.0,38.4,31.6,15.7,0000.0,0010.39,0004.06,0003.51
2022-09-27 01:15:00,,0831.6,5.01,0.00,29.7,28.2,00.0,38.4,31.7,15.9,0000.0,0010.28,0004.07,0003.53
2022-09-27 01:16:00,,0831.6,5.00,0.00,29.7,28.4,00.0,38.4,31.7,15.9,0000.0,0009.60,0004.06,0003.54
2022-09-27 01:17:00,,0831.6,5.00,0.00,29.8,28.5,00.0,38.4,31.7,15.8,0000.0,0009.47,0004.07,0003.56
2022-09-27 01:18:00,,0831.6,4.99,0.00,29.8,28.6,00.0,38.4,31.8,15.8,0000.0,0009.77,0004.05,0003.57
2022-09-27 01:19:00,,0831.6,4.99,0.00,29.8,28.7,00.0,38.5,31.8,15.7,0000.0,0010.67,0004.05,0003.58
2022-09-27 01:20:00,,0831.7,5.01,0.00,29.9,28.8,00.0,38.5,31.9,15.7,0000.0,0010.85,0004.10,0003.60
2022-09-27 01:21:00,,0831.6,4.99,0.00,29.9,28.9,00.0,38.5,32.0,15.8,0000.0,0010.70,0004.14,0003.62
2022-09-27 01:22:00,,0831.7,5.01,0.00,30.0,28.3,00.0,38.5,31.9,15.8,0000.0,0011.35,0004.16,0003.62
2022-09-27 01:23:00,,0831.7,5.00,0.00,29.9,27.1,00.0,38.5,31.8,15.7,0000.0,0011.69,0004.15,0003.62
2022-09-27 01:24:00,,0831.7,4.99,0.00,29.9,26.9,00.0,38.5,31.8,15.7,0000.0,0011.76,0004.18,0003.64
2022-09-27 01:25:00,,0831.7,5.01,0.00,29.8,27.1,00.0,38.4,31.7,15.7,0000.0,0011.55,0004.19,0003.65
2022-09-27 01:26:00,,0831.7,5.00,0.00,29.8,27.4,00.0,38.4,31.6,15.7,0000.0,0011.49,0004.22,0003.64
2022-09-27 01:27:00,,0831.7,4.99,0.00,29.8,27.7,00.0,38.4,31.7,15.7,0000.0,0011.82,0004.24,0003.65
2022-09-27 01:28:00,,0831.7,5.00,0.00,29.8,28.0,00.0,38.4,31.7,15.6,0000.0,0011.95,0004.26,0003.65
2022-09-27 01:29:00,,0831.7,5.01,0.00,29.8,28.2,00.0,38.5,31.7,15.6,0000.0,0011.65,0004.24,0003.65
2022-09-27 01:30:00,,0831.7,4.99,0.00,29.8,28.3,00.0,38.5,31.7,15.7,0000.0,0011.12,0004.20,0003.64
2022-09-27 01:31:00,,0831.7,5.01,0.00,29.8,28.5,00.0,38.5,31.8,15.7,0000.0,0010.57,0004.17,0003.63
2022-09-27 01:32:00,,0831.7,4.99,0.00,29.9,28.7,00.0,38.5,31.9,15.6,0000.0,0010.46,0004.16,0003.62
2022-09-27 01:33:00,,0831.7,5.01,0.00,29.9,28.8,00.0,38.5,31.9,15.6,0000.0,0009.94,0004.16,0003.63
2022-09-27 01:34:00,,0831.7,4.99,0.00,29.9,28.9,00.0,38.5,32.0,15.6,0000.0,0009.11,0004.20,0003.63
2022-09-27 01:35:00,,0831.8,5.01,0.00,30.0,29.0,00.0,38.6,32.0,15.6,0000.0,0009.01,0004.22,0003.63
2022-09-27 01:36:00,,0831.7,5.00,0.00,30.0,29.1,00.0,38.6,32.0,15.4,0000.0,0009.48,0004.24,0003.64
2022-09-27 01:37:00,,0831.7,4.99,0.00,30.1,29.0,00.0,38.6,32.1,15.4,0000.0,0009.43,0004.21,0003.64
2022-09-27 01:38:00,,0831.7,5.00,0.00,30.1,27.6,00.0,38.6,32.0,15.3,0000.0,0010.24,0004.20,0003.64
2022-09-27 01:39:00,,0831.7,4.99,0.00,30.0,27.0,00.0,38.6,31.9,15.3,0000.0,0010.46,0004.21,0003.65
2022-09-27 01:40:00,,0831.7,5.00,0.00,30.0,27.0,00.0,38.6,31.8,15.4,0000.0,0010.82,0004.24,0003.65
2022-09-27 01:41:00,,0831.7,5.00,0.00,29.9,27.3,00.0,38.6,31.7,15.6,0000.0,0010.62,0004.27,0003.66
2022-09-27 01:42:00,,0831.7,5.00,0.00,29.9,27.6,00.0,38.5,31.7,15.7,0000.0,0010.31,0004.28,0003.66
2022-09-27 01:43:00,,0831.7,5.00,0.00,29.9,27.9,00.0,38.5,31.8,16.0,0000.0,0010.35,0004.28,0003.66
2022-09-27 01:44:00,,0831.7,4.99,0.00,29.9,28.1,00.0,38.5,31.7,16.2,0000.0,0010.60,0004.31,0003.66
2022-09-27 01:45:00,,0831.7,5.00,0.00,29.9,28.3,00.0,38.6,31.8,15.8,0000.0,0010.80,0004.34,0003.67
2022-09-27 01:46:00,,0831.7,5.01,0.00,29.9,28.5,00.0,38.6,31.9,15.9,0000.0,0010.99,0004.33,0003.67
2022-09-27 01:47:00,,0831.7,4.99,0.00,29.9,28.7,00.0,38.6,31.9,15.6,0000.0,0010.53,0004.30,0003.66
2022-09-27 01:48:00,,0831.7,5.00,0.00,30.0,28.8,00.0,38.6,31.9,15.7,0000.0,0010.29,0004.30,0003.65
2022-09-27 01:49:00,,0831.8,4.99,0.00,30.0,28.9,00.0,38.6,32.0,15.8,0000.0,0009.12,0004.30,0003.65
2022-09-27 01:50:00,,0831.8,5.01,0.00,30.0,29.0,00.0,38.6,32.0,15.9,0000.0,0008.74,0004.26,0003.64
2022-09-27 01:51:00,,0831.8,5.00,0.00,30.1,29.0,00.0,38.7,32.0,15.9,0000.0,0008.63,0004.23,0003.64
2022-09-27 01:52:00,,0831.9,4.99,0.00,30.1,29.1,00.0,38.7,32.1,15.8,0000.0,0008.66,0004.23,0003.64
2022-09-27 01:53:00,,0831.8,5.01,0.00,30.1,28.3,00.0,38.7,32.0,15.5,0000.0,0008.71,0004.23,0003.64
2022-09-27 01:54:00,,0831.8,5.00,0.00,30.1,26.7,00.0,38.7,31.8,15.6,0000.0,0009.09,0004.20,0003.64
2022-09-27 01:55:00,,0831.8,5.00,0.00,30.0,26.1,00.0,38.6,31.7,15.7,0000.0,0009.06,0004.18,0003.64
2022-09-27 01:56:00,,0831.8,5.00,0.00,29.9,26.2,00.0,38.6,31.5,15.9,0000.0,0009.16,0004.12,0003.64
2022-09-27 01:57:00,,0831.8,5.00,0.00,29.8,26.6,00.0,38.5,31.4,16.1,0000.0,0008.73,0004.11,0003.64
2022-09-27 01:58:00,,0831.9,5.00,0.00,29.8,27.0,00.0,38.5,31.5,15.8,0000.0,0008.93,0004.16,0003.64
2022-09-27 01:59:00,,0831.9,5.00,0.00,29.7,27.4,00.0,38.5,31.5,15.8,0000.0,0009.15,0004.18,0003.64
